QPF
0.00 0.00 0.00 0.00 0.00 0.00 0.00 0.00 0.00 0.00 0.00 0.01 0.00 0.00 0.00 0.00 0.00 0.00 0.00 0.00 0.01 0.01 0.01 0.01 0.02 0.02 0.03 0.05 0.04 0.05 0.04 0.03 0.04 0.04 0.04 0.04 0.03 0.03 0.03 0.03 0.03 0.05 0.05 0.05
0.00 0.00 0.00 0.00 0.00 0.00 0.00 0.00 0.00 0.00 0.00 0.01 0.00 0.00 0.00 0.00 0.00 0.00 0.00 0.00 0.01 0.01 0.01 0.01 0.01 0.02 0.03 0.04 0.03 0.03 0.02 0.02 0.02 0.03 0.03 0.04 0.04 0.04 0.04 0.04 0.04 0.05 0.04 0.05
0.00 0.00 0.00 0.00 0.00 0.00 0.00 0.00 0.00 0.00 0.00 0.00 0.00 0.00 0.00 0.00 0.00 0.00 0.01 0.01 0.01 0.02 0.01 0.01 0.01 0.02 0.02 0.02 0.02 0.01 0.01 0.01 0.01 0.01 0.01 0.02 0.03 0.04 0.04 0.04 0.05 0.05 0.05 0.04
0.00 0.00 0.00 0.00 0.00 0.00 0.00 0.00 0.00 0.00 0.00 0.00 0.00 0.00 0.00 0.00 0.00 0.00 0.00 0.01 0.01 0.02 0.02 0.01 0.01 0.01 0.01 0.01 0.01 0.01 0.02 0.01 0.01 0.01 0.01 0.01 0.01 0.02 0.03 0.03 0.03 0.03 0.03 0.03
0.00 0.00 0.00 0.00 0.00 0.00 0.00 0.00 0.00 0.00 0.00 0.00 0.00 0.00 0.00 0.00 0.00 0.00 0.00 0.00 0.00 0.01 0.01 0.01 0.01 0.01 0.01 0.01 0.02 0.02 0.01 0.01 0.01 0.01 0.01 0.01 0.01 0.02 0.02 0.02 0.02 0.02 0.02 0.03
0.00 0.00 0.00 0.00 0.00 0.00 0.00 0.00 0.00 0.00 0.00 0.00 0.00 0.01 0.01 0.00 0.00 0.00 0.00 0.00 0.01 0.01 0.01 0.00 0.01 0.01 0.01 0.01 0.01 0.01 0.01 0.00 0.00 0.00 0.01 0.01 0.01 0.01 0.01 0.02 0.01 0.02 0.03 0.03
0.00 0.01 0.01 0.00 0.00 0.00 0.00 0.02 0.00 0.00 0.00 0.00 0.00 0.01 0.01 0.00 0.01 0.01 0.01 0.01 0.01 0.00 0.01 0.01 0.01 0.01 0.01 0.01 0.01 0.01 0.01 0.01 0.00 0.00 0.00 0.01 0.01 0.01 0.02 0.02 0.02 0.01 0.01 0.02
0.00 0.00 0.01 0.00 0.00 0.01 0.02 0.01 0.00 0.00 0.00 0.00 0.00 0.01 0.01 0.00 0.01 0.01 0.01 0.01 0.00 0.01 0.01 0.01 0.01 0.02 0.01 0.01 0.02 0.02 0.01 0.01 0.00 0.00 0.00 0.00 0.01 0.01 0.01 0.01 0.02 0.02 0.01 0.01
0.01 0.01 0.01 0.00 0.00 0.00 0.00 0.00 0.00 0.00 0.00 0.00 0.00 0.01 0.01 0.01 0.01 0.01 0.01 0.01 0.01 0.00 0.01 0.01 0.02 0.02 0.02 0.02 0.01 0.01 0.01 0.01 0.00 0.00 0.00 0.01 0.01 0.01 0.01 0.01 0.01 0.01 0.01 0.01
0.02 0.02 0.01 0.00 0.00 0.00 0.00 0.00 0.00 0.00 0.00 0.00 0.01 0.01 0.01 0.01 0.01 0.01 0.01 0.01 0.01 0.01 0.01 0.01 0.02 0.02 0.02 0.02 0.01 0.01 0.01 0.01 0.01 0.01 0.01 0.01 0.01 0.01 0.01 0.01 0.01 0.01 0.01 0.01
0.02 0.02 0.02 0.01 0.01 0.00 0.00 0.00 0.00 0.00 0.00 0.00 0.01 0.01 0.02 0.02 0.01 0.01 0.01 0.01 0.01 0.01 0.02 0.02 0.02 0.02 0.02 0.02 0.01 0.01 0.01 0.01 0.01 0.01 0.01 0.01 0.01 0.00 0.01 0.01 0.01 0.01 0.01 0.01
0.04 0.02 0.03 0.03 0.01 0.00 0.00 0.00 0.00 0.01 0.00 0.00 0.01 0.02 0.02 0.02 0.01 0.00 0.00 0.01 0.01 0.02 0.02 0.03 0.02 0.01 0.01 0.01 0.01 0.01 0.00 0.00 0.00 0.00 0.00 0.00 0.00 0.00 0.00 0.00 0.00 0.00 0.01 0.01
0.01 0.02 0.04 0.04 0.01 0.00 0.00 0.00 0.00 0.01 0.00 0.00 0.01 0.02 0.02 0.02 0.01 0.00 0.01 0.01 0.02 0.02 0.02 0.02 0.01 0.01 0.01 0.01 0.01 0.01 0.00 0.00 0.00 0.00 0.00 0.00 0.00 0.00 0.00 0.00 0.00 0.00 0.00 0.00
0.00 0.01 0.03 0.03 0.01 0.00 0.00 0.00 0.01 0.01 0.01 0.01 0.01 0.02 0.02 0.02 0.01 0.01 0.01 0.01 0.02 0.02 0.02 0.01 0.01 0.01 0.01 0.01 0.01 0.01 0.01 0.01 0.00 0.00 0.00 0.00 0.00 0.00 0.00 0.00 0.00 0.00 0.00 0.00
0.00 0.00 0.01 0.01 0.01 0.01 0.01 0.01 0.01 0.01 0.01 0.01 0.02 0.02 0.03 0.03 0.02 0.02 0.02 0.02 0.02 0.02 0.01 0.01 0.01 0.01 0.01 0.01 0.00 0.00 0.00 0.00 0.00 0.00 0.00 0.00 0.00 0.00 0.00 0.00 0.00 0.00 0.00 0.00
0.01 0.01 0.01 0.01 0.02 0.02 0.01 0.01 0.01 0.01 0.01 0.01 0.02 0.02 0.03 0.03 0.03 0.02 0.02 0.02 0.02 0.02 0.01 0.01 0.01 0.01 0.01 0.00 0.00 0.00 0.00 0.01 0.01 0.00 0.00 0.00 0.00 0.00 0.00 0.00 0.00 0.00 0.00 0.00
0.02 0.01 0.01 0.02 0.01 0.02 0.02 0.01 0.01 0.01 0.01 0.02 0.02 0.02 0.03 0.03 0.03 0.02 0.02 0.02 0.02 0.02 0.02 0.02 0.02 0.02 0.01 0.01 0.02 0.02 0.02 0.02 0.02 0.01 0.00 0.00 0.00 0.00 0.00 0.00 0.00 0.00 0.00 0.00
0.02 0.03 0.03 0.03 0.03 0.03 0.04 0.03 0.02 0.02 0.02 0.01 0.02 0.03 0.03 0.02 0.02 0.02 0.01 0.01 0.02 0.02 0.02 0.03 0.04 0.04 0.03 0.02 0.02 0.02 0.03 0.03 0.02 0.01 0.01 0.01 0.00 0.00 0.00 0.00 0.00 0.00 0.00 0.00
0.03 0.03 0.04 0.03 0.04 0.04 0.03 0.04 0.03 0.03 0.02 0.02 0.02 0.03 0.03 0.02 0.02 0.02 0.02 0.02 0.02 0.02 0.02 0.02 0.03 0.02 0.01 0.01 0.01 0.01 0.02 0.02 0.01 0.01 0.01 0.02 0.02 0.02 0.02 0.02 0.01 0.01 0.00 0.00
0.03 0.03 0.03 0.03 0.03 0.05 0.04 0.03 0.03 0.03 0.03 0.03 0.04 0.05 0.04 0.04 0.04 0.03 0.03 0.03 0.03 0.02 0.02 0.02 0.02 0.01 0.01 0.02 0.02 0.01 0.01 0.01 0.01 0.02 0.02 0.02 0.02 0.01 0.01 0.00 0.00 0.00 0.00 0.00
0.04 0.04 0.03 0.03 0.04 0.05 0.04 0.03 0.02 0.02 0.03 0.03 0.03 0.04 0.05 0.05 0.04 0.04 0.03 0.03 0.03 0.02 0.01 0.01 0.01 0.01 0.01 0.01 0.01 0.01 0.01 0.01 0.00 0.00 0.00 0.00 0.00 0.00 0.00 0.00 0.00 0.00 0.00 0.00
0.05 0.05 0.04 0.04 0.03 0.03 0.03 0.03 0.02 0.02 0.03 0.03 0.03 0.03 0.04 0.05 0.04 0.03 0.02 0.02 0.02 0.02 0.01 0.01 0.01 0.01 0.01 0.00 0.00 0.00 0.00 0.00 0.00 0.00 0.00 0.00 0.00 0.00 0.00 0.00 0.00 0.00 0.00 0.00
0.05 0.05 0.05 0.04 0.03 0.03 0.03 0.04 0.03 0.03 0.03 0.03 0.03 0.04 0.03 0.03 0.03 0.03 0.03 0.02 0.01 0.02 0.01 0.01 0.01 0.01 0.01 0.01 0.00 0.00 0.00 0.00 0.00 0.00 0.00 0.00 0.00 0.00 0.00 0.00 0.00 0.00 0.00 0.00
0.06 0.06 0.05 0.04 0.04 0.04 0.04 0.05 0.04 0.04 0.04 0.04 0.04 0.04 0.04 0.03 0.03 0.03 0.03 0.03 0.02 0.01 0.01 0.01 0.00 0.00 0.00 0.00 0.00 0.00 0.00 0.00 0.00 0.00 0.00 0.00 0.00 0.00 0.00 0.00 0.00 0.00 0.00 0.00
0.06 0.05 0.06 0.07 0.06 0.06 0.06 0.07 0.06 0.04 0.04 0.05 0.06 0.05 0.04 0.03 0.02 0.01 0.02 0.02 0.03 0.02 0.01 0.01 0.00 0.00 0.00 0.00 0.00 0.00 0.00 0.00 0.00 0.00 0.00 0.00 0.00 0.00 0.00 0.00 0.00 0.00 0.00 0.00
0.07 0.06 0.06 0.06 0.07 0.07 0.08 0.08 0.08 0.06 0.05 0.06 0.05 0.04 0.03 0.03 0.02 0.02 0.02 0.02 0.02 0.01 0.00 0.00 0.00 0.00 0.00 0.00 0.00 0.00 0.00 0.00 0.00 0.00 0.00 0.00 0.00 0.00 0.00 0.00 0.00 0.00 0.00 0.00
0.07 0.05 0.05 0.06 0.06 0.07 0.07 0.08 0.07 0.06 0.05 0.05 0.04 0.03 0.02 0.02 0.01 0.01 0.01 0.01 0.01 0.00 0.00 0.00 0.00 0.00 0.00 0.00 0.00 0.00 0.00 0.00 0.00 0.00 0.00 0.00 0.00 0.00 0.00 0.00 0.00 0.00 0.00 0.00
MSLP
1009.50 1009.69 1009.80 1009.86 1009.88 1009.87 1009.83 1009.76 1009.64 1009.45 1009.18 1008.84 1008.46 1008.06 1007.69 1007.39 1007.21 1007.18 1007.32 1007.63 1008.09 1008.66 1009.31 1009.99 1010.67 1011.30 1011.87 1012.35 1012.75 1013.07 1013.31 1013.50 1013.65 1013.77 1013.87 1013.95 1014.02 1014.06 1014.09 1014.08 1014.05 1014.00 1013.93 1013.86
1009.94 1010.00 1009.91 1009.73 1009.48 1009.22 1008.98 1008.77 1008.60 1008.46 1008.33 1008.19 1008.02 1007.85 1007.66 1007.49 1007.37 1007.33 1007.40 1007.60 1007.94 1008.41 1008.99 1009.65 1010.36 1011.06 1011.73 1012.33 1012.84 1013.25 1013.57 1013.81 1013.99 1014.12 1014.23 1014.34 1014.44 1014.54 1014.64 1014.71 1014.77 1014.79 1014.79 1014.77
1010.35 1010.29 1010.04 1009.66 1009.21 1008.75 1008.35 1008.05 1007.86 1007.77 1007.75 1007.78 1007.81 1007.81 1007.77 1007.70 1007.61 1007.54 1007.53 1007.62 1007.85 1008.22 1008.73 1009.36 1010.08 1010.84 1011.60 1012.30 1012.90 1013.40 1013.78 1014.07 1014.27 1014.42 1014.54 1014.66 1014.80 1014.95 1015.11 1015.26 1015.40 1015.51 1015.59 1015.62
1010.62 1010.48 1010.13 1009.62 1009.03 1008.46 1007.98 1007.63 1007.45 1007.42 1007.51 1007.68 1007.85 1007.99 1008.06 1008.04 1007.97 1007.86 1007.77 1007.76 1007.87 1008.14 1008.58 1009.18 1009.90 1010.70 1011.51 1012.28 1012.95 1013.51 1013.94 1014.26 1014.47 1014.63 1014.75 1014.89 1015.04 1015.24 1015.45 1015.68 1015.90 1016.10 1016.24 1016.35
1010.71 1010.51 1010.11 1009.55 1008.93 1008.33 1007.84 1007.51 1007.37 1007.42 1007.60 1007.87 1008.15 1008.38 1008.51 1008.53 1008.45 1008.30 1008.13 1008.03 1008.05 1008.23 1008.61 1009.16 1009.86 1010.66 1011.50 1012.30 1013.02 1013.61 1014.06 1014.39 1014.60 1014.76 1014.89 1015.03 1015.21 1015.43 1015.70 1015.99 1016.28 1016.55 1016.77 1016.93
1010.57 1010.36 1009.96 1009.43 1008.85 1008.30 1007.87 1007.62 1007.56 1007.69 1007.96 1008.31 1008.67 1008.95 1009.12 1009.15 1009.05 1008.85 1008.64 1008.46 1008.41 1008.52 1008.83 1009.33 1010.00 1010.78 1011.61 1012.41 1013.13 1013.72 1014.17 1014.49 1014.71 1014.86 1014.99 1015.14 1015.34 1015.59 1015.90 1016.25 1016.60 1016.93 1017.21 1017.43
1010.26 1010.06 1009.71 1009.26 1008.78 1008.35 1008.05 1007.90 1007.95 1008.17 1008.52 1008.93 1009.32 1009.63 1009.81 1009.84 1009.73 1009.51 1009.26 1009.04 1008.94 1009.00 1009.26 1009.71 1010.33 1011.07 1011.86 1012.63 1013.32 1013.89 1014.32 1014.63 1014.83 1014.98 1015.12 1015.28 1015.51 1015.80 1016.15 1016.54 1016.94 1017.32 1017.65 1017.91
1009.87 1009.69 1009.42 1009.09 1008.75 1008.47 1008.31 1008.30 1008.46 1008.76 1009.17 1009.62 1010.03 1010.35 1010.54 1010.56 1010.44 1010.22 1009.97 1009.74 1009.62 1009.65 1009.87 1010.28 1010.85 1011.53 1012.25 1012.96 1013.60 1014.13 1014.53 1014.82 1015.02 1015.17 1015.33 1015.52 1015.77 1016.10 1016.49 1016.91 1017.35 1017.77 1018.13 1018.43
1009.51 1009.37 1009.18 1008.97 1008.78 1008.66 1008.65 1008.77 1009.02 1009.39 1009.83 1010.29 1010.71 1011.02 1011.20 1011.23 1011.12 1010.93 1010.69 1010.48 1010.37 1010.40 1010.61 1010.97 1011.49 1012.10 1012.75 1013.39 1013.96 1014.44 1014.80 1015.07 1015.28 1015.44 1015.63 1015.85 1016.15 1016.51 1016.94 1017.40 1017.87 1018.31 1018.69 1019.00
1009.29 1009.18 1009.07 1008.97 1008.91 1008.93 1009.03 1009.25 1009.57 1009.97 1010.42 1010.87 1011.26 1011.56 1011.73 1011.77 1011.69 1011.54 1011.35 1011.20 1011.13 1011.18 1011.38 1011.72 1012.18 1012.72 1013.30 1013.86 1014.36 1014.78 1015.11 1015.37 1015.58 1015.78 1016.00 1016.27 1016.61 1017.01 1017.48 1017.97 1018.45 1018.90 1019.29 1019.59
1009.30 1009.20 1009.15 1009.13 1009.17 1009.27 1009.45 1009.71 1010.05 1010.44 1010.86 1011.27 1011.62 1011.89 1012.06 1012.12 1012.08 1011.99 1011.88 1011.80 1011.79 1011.88 1012.09 1012.41 1012.83 1013.31 1013.81 1014.29 1014.72 1015.09 1015.39 1015.65 1015.88 1016.11 1016.38 1016.70 1017.09 1017.54 1018.03 1018.54 1019.04 1019.48 1019.86 1020.15
1009.51 1009.43 1009.40 1009.43 1009.51 1009.65 1009.85 1010.11 1010.42 1010.76 1011.11 1011.45 1011.75 1011.98 1012.14 1012.22 1012.25 1012.23 1012.21 1012.21 1012.28 1012.43 1012.66 1012.98 1013.36 1013.77 1014.20 1014.61 1014.98 1015.31 1015.60 1015.86 1016.11 1016.39 1016.71 1017.09 1017.52 1018.01 1018.53 1019.05 1019.54 1019.98 1020.34 1020.61
1009.84 1009.76 1009.74 1009.78 1009.87 1010.00 1010.18 1010.39 1010.63 1010.89 1011.16 1011.41 1011.64 1011.84 1011.99 1012.10 1012.18 1012.25 1012.32 1012.43 1012.58 1012.78 1013.05 1013.36 1013.71 1014.08 1014.45 1014.80 1015.13 1015.42 1015.69 1015.97 1016.25 1016.57 1016.95 1017.37 1017.86 1018.37 1018.91 1019.43 1019.92 1020.34 1020.67 1020.91
1010.15 1010.08 1010.06 1010.09 1010.16 1010.25 1010.37 1010.51 1010.66 1010.82 1010.99 1011.17 1011.34 1011.50 1011.65 1011.80 1011.94 1012.10 1012.27 1012.47 1012.70 1012.97 1013.27 1013.59 1013.92 1014.25 1014.57 1014.87 1015.16 1015.43 1015.70 1015.98 1016.30 1016.67 1017.09 1017.56 1018.07 1018.62 1019.16 1019.68 1020.15 1020.54 1020.84 1021.06
1010.28 1010.22 1010.20 1010.23 1010.27 1010.32 1010.38 1010.45 1010.51 1010.59 1010.68 1010.78 1010.90 1011.04 1011.21 1011.40 1011.61 1011.86 1012.12 1012.42 1012.73 1013.05 1013.39 1013.72 1014.04 1014.34 1014.62 1014.88 1015.13 1015.39 1015.66 1015.96 1016.30 1016.70 1017.16 1017.66 1018.20 1018.76 1019.30 1019.80 1020.25 1020.61 1020.89 1021.07
1010.11 1010.07 1010.08 1010.10 1010.14 1010.17 1010.19 1010.20 1010.22 1010.23 1010.27 1010.33 1010.44 1010.58 1010.78 1011.03 1011.32 1011.65 1012.01 1012.38 1012.77 1013.15 1013.51 1013.85 1014.16 1014.43 1014.68 1014.91 1015.14 1015.38 1015.64 1015.95 1016.32 1016.74 1017.22 1017.74 1018.29 1018.84 1019.37 1019.85 1020.26 1020.60 1020.84 1021.00
1009.59 1009.60 1009.64 1009.70 1009.76 1009.80 1009.82 1009.83 1009.83 1009.83 1009.86 1009.93 1010.05 1010.23 1010.48 1010.80 1011.17 1011.58 1012.03 1012.48 1012.93 1013.36 1013.74 1014.09 1014.39 1014.64 1014.86 1015.06 1015.26 1015.48 1015.73 1016.04 1016.40 1016.83 1017.31 1017.83 1018.37 1018.90 1019.41 1019.86 1020.24 1020.54 1020.76 1020.90
1008.77 1008.84 1008.95 1009.07 1009.19 1009.28 1009.35 1009.39 1009.43 1009.47 1009.54 1009.66 1009.83 1010.08 1010.40 1010.79 1011.24 1011.74 1012.26 1012.78 1013.29 1013.75 1014.15 1014.50 1014.79 1015.02 1015.21 1015.37 1015.54 1015.73 1015.96 1016.24 1016.58 1016.99 1017.45 1017.95 1018.46 1018.96 1019.43 1019.85 1020.20 1020.47 1020.66 1020.79
1007.78 1007.94 1008.13 1008.35 1008.55 1008.73 1008.88 1009.01 1009.13 1009.25 1009.40 1009.59 1009.85 1010.17 1010.58 1011.05 1011.58 1012.15 1012.73 1013.31 1013.85 1014.33 1014.75 1015.09 1015.36 1015.56 1015.72 1015.84 1015.97 1016.11 1016.30 1016.54 1016.85 1017.21 1017.63 1018.08 1018.55 1019.01 1019.44 1019.82 1020.13 1020.38 1020.56 1020.67
1006.85 1007.09 1007.38 1007.70 1008.00 1008.29 1008.55 1008.78 1009.00 1009.23 1009.47 1009.76 1010.10 1010.51 1010.99 1011.54 1012.13 1012.75 1013.38 1013.99 1014.55 1015.04 1015.46 1015.78 1016.03 1016.20 1016.32 1016.40 1016.48 1016.57 1016.70 1016.89 1017.13 1017.44 1017.79 1018.19 1018.60 1019.00 1019.39 1019.73 1020.02 1020.25 1020.42 1020.54
1006.20 1006.52 1006.89 1007.30 1007.70 1008.09 1008.45 1008.78 1009.10 1009.42 1009.76 1010.13 1010.55 1011.03 1011.57 1012.16 1012.79 1013.44 1014.09 1014.71 1015.27 1015.76 1016.16 1016.46 1016.68 1016.82 1016.90 1016.93 1016.96 1016.99 1017.06 1017.18 1017.35 1017.59 1017.87 1018.20 1018.55 1018.90 1019.24 1019.55 1019.82 1020.04 1020.22 1020.36
1005.99 1006.36 1006.80 1007.27 1007.74 1008.20 1008.64 1009.05 1009.45 1009.84 1010.24 1010.66 1011.13 1011.64 1012.20 1012.81 1013.44 1014.09 1014.72 1015.32 1015.87 1016.33 1016.71 1016.99 1017.18 1017.29 1017.33 1017.33 1017.30 1017.29 1017.30 1017.35 1017.45 1017.61 1017.83 1018.09 1018.38 1018.69 1018.99 1019.28 1019.54 1019.77 1019.96 1020.13
1006.30 1006.71 1007.18 1007.67 1008.18 1008.67 1009.14 1009.58 1010.01 1010.42 1010.84 1011.28 1011.74 1012.24 1012.78 1013.36 1013.96 1014.57 1015.16 1015.72 1016.23 1016.66 1017.01 1017.26 1017.43 1017.51 1017.53 1017.50 1017.44 1017.39 1017.35 1017.35 1017.39 1017.50 1017.65 1017.86 1018.10 1018.37 1018.65 1018.92 1019.19 1019.43 1019.65 1019.86
1007.12 1007.53 1007.99 1008.48 1008.97 1009.44 1009.89 1010.32 1010.72 1011.11 1011.50 1011.90 1012.31 1012.76 1013.24 1013.75 1014.28 1014.82 1015.35 1015.84 1016.30 1016.69 1017.00 1017.23 1017.39 1017.46 1017.47 1017.43 1017.36 1017.28 1017.22 1017.19 1017.20 1017.26 1017.38 1017.55 1017.76 1018.00 1018.27 1018.54 1018.81 1019.08 1019.33 1019.57
1008.32 1008.71 1009.14 1009.57 1010.01 1010.42 1010.81 1011.17 1011.51 1011.83 1012.15 1012.47 1012.81 1013.16 1013.55 1013.96 1014.39 1014.84 1015.28 1015.71 1016.10 1016.44 1016.73 1016.94 1017.09 1017.16 1017.18 1017.15 1017.10 1017.03 1016.97 1016.93 1016.93 1016.98 1017.07 1017.22 1017.42 1017.65 1017.91 1018.19 1018.47 1018.75 1019.03 1019.30
1009.73 1010.08 1010.44 1010.81 1011.16 1011.48 1011.78 1012.05 1012.30 1012.53 1012.75 1012.97 1013.20 1013.45 1013.73 1014.03 1014.36 1014.70 1015.05 1015.40 1015.73 1016.02 1016.28 1016.49 1016.64 1016.73 1016.78 1016.78 1016.75 1016.72 1016.68 1016.66 1016.67 1016.72 1016.81 1016.96 1017.15 1017.38 1017.63 1017.91 1018.21 1018.50 1018.79 1019.07
1011.13 1011.43 1011.72 1012.00 1012.26 1012.49 1012.69 1012.87 1013.02 1013.15 1013.28 1013.40 1013.53 1013.68 1013.85 1014.04 1014.27 1014.51 1014.78 1015.05 1015.32 1015.58 1015.82 1016.02 1016.18 1016.30 1016.38 1016.42 1016.44 1016.44 1016.44 1016.45 1016.49 1016.55 1016.65 1016.80 1016.99 1017.21 1017.46 1017.74 1018.03 1018.32 1018.60 1018.88
Thickness
5800 5814 5820 5816 5815 5819 5817 5818 5810 5816 5820 5821 5830 5833 5831 5829 5826 5821 5816 5811 5807 5802 5797 5792 5788 5783 5779 5776 5772 5768 5763 5758 5754 5751 5749 5746 5743 5740 5738 5736 5733 5731 5729 5727
5785 5805 5812 5811 5817 5819 5819 5821 5818 5819 5818 5832 5836 5834 5828 5823 5819 5813 5809 5806 5803 5798 5793 5788 5783 5779 5775 5770 5767 5763 5758 5753 5750 5747 5744 5741 5738 5735 5732 5730 5727 5724 5721 5719
5769 5792 5797 5790 5811 5816 5818 5824 5820 5810 5817 5831 5826 5823 5820 5818 5814 5809 5805 5801 5798 5794 5789 5785 5781 5777 5771 5767 5763 5758 5753 5749 5746 5742 5739 5736 5734 5730 5726 5723 5720 5717 5714 5711
5763 5769 5754 5794 5829 5827 5819 5821 5827 5824 5826 5828 5823 5822 5821 5819 5812 5807 5805 5800 5795 5791 5786 5782 5778 5774 5769 5764 5759 5754 5748 5744 5740 5737 5733 5730 5726 5723 5719 5717 5713 5710 5707 5704
5755 5754 5765 5796 5817 5820 5810 5803 5821 5819 5820 5821 5822 5814 5809 5814 5812 5807 5803 5798 5794 5790 5785 5780 5775 5770 5764 5758 5754 5748 5743 5739 5735 5731 5727 5723 5719 5716 5713 5710 5706 5703 5699 5696
5750 5744 5748 5782 5813 5826 5813 5788 5811 5814 5811 5812 5810 5792 5792 5806 5806 5801 5798 5794 5789 5786 5780 5774 5770 5765 5758 5752 5747 5741 5737 5733 5729 5725 5721 5716 5713 5710 5707 5703 5699 5696 5691 5688
5740 5742 5761 5789 5810 5811 5776 5774 5801 5806 5806 5804 5798 5795 5798 5800 5796 5793 5789 5786 5783 5777 5771 5766 5763 5758 5751 5745 5739 5735 5731 5727 5723 5718 5714 5710 5707 5703 5700 5696 5692 5687 5683 5678
5737 5735 5747 5784 5793 5776 5773 5792 5797 5798 5799 5796 5795 5795 5792 5789 5784 5781 5778 5776 5773 5767 5761 5759 5756 5750 5742 5736 5733 5729 5724 5719 5715 5711 5708 5703 5700 5696 5692 5688 5684 5679 5675 5670
5746 5745 5759 5775 5774 5778 5784 5783 5787 5789 5791 5790 5786 5783 5780 5777 5773 5770 5768 5765 5763 5758 5752 5749 5746 5742 5734 5729 5726 5721 5716 5711 5707 5703 5699 5695 5692 5688 5684 5681 5677 5672 5668 5662
5740 5743 5754 5762 5767 5770 5775 5776 5781 5783 5784 5782 5777 5774 5770 5767 5763 5760 5758 5755 5753 5748 5742 5738 5736 5732 5727 5723 5719 5713 5708 5703 5699 5694 5690 5685 5682 5678 5674 5671 5669 5665 5660 5655
5729 5735 5743 5749 5753 5757 5765 5770 5772 5774 5775 5773 5770 5765 5762 5757 5754 5751 5748 5746 5743 5738 5733 5729 5726 5722 5719 5715 5711 5705 5700 5696 5691 5686 5680 5674 5667 5662 5660 5654 5654 5654 5651 5647
5714 5725 5727 5730 5742 5750 5753 5756 5758 5760 5761 5763 5761 5756 5753 5748 5745 5742 5739 5736 5732 5728 5724 5720 5717 5713 5710 5707 5703 5698 5693 5689 5686 5681 5674 5668 5660 5652 5646 5645 5643 5642 5639 5636
5717 5722 5723 5727 5734 5742 5744 5747 5750 5751 5751 5750 5750 5748 5744 5739 5736 5733 5730 5726 5722 5719 5715 5712 5708 5704 5702 5699 5696 5692 5687 5684 5681 5676 5670 5664 5657 5651 5643 5635 5633 5631 5628 5626
5710 5713 5712 5718 5723 5731 5735 5738 5741 5741 5741 5741 5740 5737 5734 5730 5726 5723 5720 5718 5714 5710 5706 5703 5700 5696 5693 5691 5687 5684 5681 5677 5674 5670 5665 5660 5654 5649 5643 5637 5631 5624 5619 5616
5699 5704 5705 5711 5715 5719 5724 5726 5727 5727 5728 5728 5728 5726 5723 5719 5715 5713 5711 5709 5705 5701 5697 5694 5691 5687 5685 5682 5678 5675 5672 5669 5666 5663 5659 5655 5650 5645 5640 5634 5628 5621 5615 5609
5688 5694 5698 5700 5703 5707 5711 5713 5714 5715 5717 5716 5716 5714 5713 5710 5706 5703 5701 5699 5695 5691 5688 5685 5681 5679 5677 5673 5669 5665 5662 5659 5656 5654 5651 5647 5643 5638 5633 5628 5622 5617 5612 5607
5675 5679 5684 5688 5693 5697 5701 5704 5705 5706 5706 5705 5705 5704 5702 5698 5694 5691 5689 5687 5685 5681 5679 5676 5672 5670 5667 5664 5661 5658 5654 5650 5646 5645 5643 5638 5634 5630 5626 5621 5617 5611 5606 5601
5671 5675 5679 5683 5686 5690 5693 5696 5697 5697 5696 5696 5695 5693 5690 5687 5683 5680 5678 5676 5672 5669 5667 5665 5663 5661 5658 5655 5653 5650 5647 5643 5640 5637 5633 5629 5625 5622 5619 5614 5610 5605 5599 5595
5665 5669 5673 5677 5681 5684 5686 5687 5687 5687 5687 5687 5685 5682 5679 5677 5673 5670 5668 5665 5662 5658 5656 5655 5652 5651 5649 5646 5644 5642 5640 5636 5631 5628 5624 5619 5617 5614 5611 5607 5603 5599 5594 5590
5658 5662 5665 5669 5673 5674 5675 5676 5677 5677 5677 5676 5674 5671 5667 5664 5662 5660 5657 5655 5653 5651 5649 5646 5644 5642 5640 5637 5635 5634 5632 5628 5624 5620 5616 5613 5610 5607 5604 5601 5597 5593 5589 5584
5648 5652 5656 5659 5661 5663 5665 5666 5666 5665 5666 5665 5662 5659 5656 5654 5652 5650 5647 5643 5641 5641 5638 5635 5635 5633 5630 5628 5626 5626 5624 5620 5617 5613 5610 5606 5603 5600 5597 5594 5590 5587 5582 5578
5639 5643 5646 5649 5650 5651 5654 5656 5656 5656 5655 5654 5652 5650 5647 5644 5641 5639 5636 5634 5632 5629 5629 5628 5626 5623 5621 5619 5619 5618 5616 5613 5610 5607 5604 5600 5597 5593 5590 5587 5584 5580 5576 5571
5630 5634 5637 5639 5640 5641 5643 5645 5645 5645 5644 5643 5642 5640 5638 5636 5634 5630 5625 5624 5623 5620 5620 5619 5615 5613 5611 5611 5612 5611 5609 5606 5604 5601 5597 5594 5591 5588 5584 5580 5577 5573 5569 5565
5621 5624 5626 5629 5631 5631 5631 5633 5634 5634 5634 5633 5632 5631 5629 5626 5623 5621 5618 5614 5613 5611 5611 5607 5606 5604 5602 5604 5604 5603 5601 5599 5597 5595 5592 5589 5586 5582 5578 5574 5570 5566 5563 5558
5612 5615 5617 5619 5619 5620 5621 5623 5623 5623 5623 5622 5620 5620 5619 5618 5615 5613 5610 5607 5604 5603 5602 5598 5597 5596 5597 5597 5597 5596 5594 5591 5590 5588 5586 5583 5580 5575 5571 5567 5564 5561 5557 5553
5604 5606 5608 5609 5611 5612 5613 5614 5614 5613 5613 5611 5610 5610 5610 5609 5607 5605 5603 5600 5599 5596 5596 5593 5591 5589 5591 5591 5590 5589 5587 5585 5583 5582 5580 5577 5574 5570 5566 5562 5557 5554 5550 5547
5597 5598 5600 5601 5602 5604 5605 5605 5605 5604 5604 5603 5602 5602 5603 5601 5600 5599 5597 5595 5593 5592 5591 5589 5588 5586 5586 5586 5585 5584 5582 5580 5578 5576 5573 5570 5567 5563 5560 5555 5551 5548 5544 5540